Regional Weather Roundup
Issued by NWS

Home | Current Version | Previous Version | Text Only | Print | Product List | Glossary On
Versions: 1 2 3 4 5 6 7 8 9 10 11 12 13 14 15 16 17 18 19 20 21 22 23 24 25 26 27 28 29 30 31 32 33 34 35 36 37 38 39 40 41 42 43 44 45 46 47 48 49 50
273
ASUS44 KLIX 301711
RWRLA
LOUISIANA WEATHER ROUNDUP
NATIONAL WEATHER SERVICE NEW ORLEANS LA
1200 PM CDT SAT APR 30 2016

NOTE: "FAIR" INDICATES FEW OR NO CLOUDS BELOW 12,000 FEET WITH NO
      SIGNIFICANT WEATHER AND/OR OBSTRUCTIONS TO VISIBILITY.
      SKY/WX - SKY CONDITION AND SIGNIFICANT WEATHER.
      TMP - AIR TEMPERATURE.    DP   - DEWPOINT TEMPERATURE.
      RH  - RELATIVE HUMIDITY.  PRES - PRESSURE.
      HX  - HEAT INDEX.         WCI  - WIND CHILL INDEX.

*  THESE STATIONS ARE NOT NWS OR FAA STATIONS AND ARE NOT UNDER
   NWS QUALITY CONTROL.

LAZ040-048-061>063-065-066-069-301800-
SOUTHEAST LOUISIANA

CITY           SKY/WX    TMP DP  RH WIND       PRES   REMARKS
N.O. AUDUBON   NOT AVBL
N.O. INTL ARPT CLOUDY    81  72  74 SE16G24   29.82F
N.O. LAKEFRONT CLOUDY    76  73  91 SE15G25   29.83F
N.O. DOWNTOWN* CLOUDY    80  73  79 S10G20    29.84F
RESERVE*       CLOUDY    81  73  77 S15       29.82R
SLIDELL        CLOUDY    79  74  84 SE12G21   29.84F
BATON ROUGE    LGT RAIN  76  72  87 E5        29.81S
BOOTHVILLE     PTSUNNY   80  73  79 SE18G25   29.85F
BELLE CHASSE   CLOUDY    79  73  82 SE12      29.83F
BOGALUSA*      CLOUDY    82  70  66 S9G18     29.87S
GALLIANO*      CLOUDY    82  74  76 S15G23    29.81F
NEW ROADS*     RAIN      74  72  91 NE3       29.82R
GONZALES*      CLOUDY    79  72  78 S8        29.80S
HAMMOND*       CLOUDY    79  70  73 SE10      29.82F
HOUMA*         CLOUDY    81  75  83 SE16G28   29.80F
PORT FOURCHON* SUNNY     81  75  83 SE14G24   29.83S

$$

LAZ041-044-053-054-301800-
SOUTHWEST LOUISIANA

CITY           SKY/WX    TMP DP  RH WIND       PRES   REMARKS
LAKE CHARLES   CLOUDY    75  70  84 SE10      29.72F
LAFAYETTE      TSTM      70  68  93 SE5       29.84R VSB 1/2
PATTERSON      NOT AVBL
SALT POINT       N/A     76  75  97 SE12G22   29.73F
NEW IBERIA     TSTM      76  73  91 W10G17    29.82R FOG
CHENAULT AIRPK NOT AVBL

$$

LAZ027-028-301800-
CENTRAL LOUISIANA

CITY           SKY/WX    TMP DP  RH WIND       PRES   REMARKS
FORT POLK      CLOUDY    75  72  88 E7        29.73R
ALEXANDRIA INT CLOUDY    75  70  84 E8        29.74R
ALEXANDRIA     CLOUDY    73  70  90 N6        29.79R

$$

LAZ001-002-301800-
NORTHWEST LOUISIANA

CITY           SKY/WX    TMP DP  RH WIND       PRES   REMARKS
SHREVEPORT     PTSUNNY   76  67  73 SE10G20   29.72F
BARKSDALE AFB  MOSUNNY   75  66  73 S8        29.72F
DTN SHREVEPORT MOSUNNY   75  66  73 SE14      29.71F

$$

LAZ014-016-301800-
NORTHEAST LOUISIANA

CITY           SKY/WX    TMP DP  RH WIND       PRES   REMARKS
MONROE         LGT RAIN  67  66  97 NE5       29.83F FOG
TALLULAH       LGT RAIN  76  69  79 SE12      29.85R

$$





USA.gov is the U.S. government's official web portal to all federal, state and local government web resources and services.